Time,TemperatureF,DewpointF,PressureIn,WindDirection,WindDirectionDegrees,WindSpeedMPH,WindSpeedGustMPH,Humidity,HourlyPrecipIn,Conditions,Clouds,dailyrainin,SoftwareType,DateUTC
2013-02-04 00:03:00,24.0,18.0,-100.00,NW,315,1.0,4.0,78,0.00,,,-99.99,,2013-02-04 05:03:00,
2013-02-04 00:12:00,23.0,18.0,-100.00,West,270,1.0,4.0,79,0.00,,,-99.99,,2013-02-04 05:12:00,
2013-02-04 00:22:00,23.0,18.0,-100.00,WNW,285,1.0,2.0,80,0.00,,,-99.99,,2013-02-04 05:22:00,
2013-02-04 00:33:00,23.0,18.0,-100.00,NW,315,1.0,3.0,80,0.00,,,-99.99,,2013-02-04 05:33:00,
2013-02-04 00:42:00,23.0,18.0,-100.00,WNW,300,1.0,2.0,81,0.00,,,-99.99,,2013-02-04 05:42:00,
2013-02-04 00:52:00,23.0,19.0,-100.00,WNW,300,1.0,2.0,82,0.00,,,-99.99,,2013-02-04 05:52:00,
2013-02-04 01:02:00,23.0,18.0,-100.00,WNW,295,1.0,2.0,83,0.00,,,-99.99,,2013-02-04 06:02:00,
2013-02-04 01:11:00,23.0,19.0,-100.00,NW,315,1.0,3.0,84,0.00,,,-99.99,,2013-02-04 06:11:00,
2013-02-04 01:21:00,23.0,19.0,-100.00,WNW,295,1.0,2.0,84,0.00,,,-99.99,,2013-02-04 06:21:00,
2013-02-04 01:32:00,22.0,18.0,-100.00,WNW,290,1.0,2.0,85,0.00,,,-99.99,,2013-02-04 06:32:00,
2013-02-04 01:42:00,22.0,18.0,-100.00,West,260,1.0,3.0,85,0.00,,,-99.99,,2013-02-04 06:42:00,
2013-02-04 01:52:00,22.0,18.0,-100.00,West,265,1.0,2.0,86,0.00,,,-99.99,,2013-02-04 06:52:00,
2013-02-04 02:02:00,21.0,18.0,-100.00,NW,305,1.0,3.0,86,0.00,,,-99.99,,2013-02-04 07:02:00,
2013-02-04 02:11:00,21.0,18.0,-100.00,WNW,285,2.0,4.0,87,0.00,,,-99.99,,2013-02-04 07:11:00,
2013-02-04 02:21:00,20.0,17.0,-100.00,WNW,295,2.0,3.0,87,0.00,,,-99.99,,2013-02-04 07:21:00,
2013-02-04 02:32:00,20.0,17.0,-100.00,NW,320,2.0,4.0,87,0.00,,,-99.99,,2013-02-04 07:32:00,
2013-02-04 02:42:00,21.0,18.0,-100.00,NW,325,4.0,6.0,87,0.00,,,-99.99,,2013-02-04 07:42:00,
2013-02-04 02:52:00,21.0,18.0,-100.00,NW,325,4.0,7.0,86,0.00,,,-99.99,,2013-02-04 07:52:00,
2013-02-04 03:01:00,21.0,17.0,-100.00,NNW,340,3.0,7.0,83,0.00,,,-99.99,,2013-02-04 08:01:00,
2013-02-04 03:11:00,21.0,16.0,-100.00,NW,325,4.0,7.0,81,0.00,,,-99.99,,2013-02-04 08:11:00,
2013-02-04 03:21:00,21.0,16.0,-100.00,NNW,335,3.0,5.0,79,0.00,,,-99.99,,2013-02-04 08:21:00,
2013-02-04 03:32:00,21.0,15.0,-100.00,NNW,330,4.0,6.0,77,0.00,,,-99.99,,2013-02-04 08:32:00,
2013-02-04 03:42:00,21.0,15.0,-100.00,NNW,335,4.0,6.0,76,0.00,,,-99.99,,2013-02-04 08:42:00,
2013-02-04 03:52:00,21.0,14.0,-100.00,NW,325,6.0,8.0,72,0.00,,,-99.99,,2013-02-04 08:52:00,
2013-02-04 04:02:00,21.0,13.0,-100.00,NNW,330,5.0,9.0,71,0.00,,,-99.99,,2013-02-04 09:02:00,
2013-02-04 04:11:00,21.0,13.0,-100.00,NNW,330,3.0,6.0,71,0.00,,,-99.99,,2013-02-04 09:11:00,
2013-02-04 04:21:00,20.0,13.0,-100.00,NNW,330,2.0,6.0,71,0.00,,,-99.99,,2013-02-04 09:21:00,
2013-02-04 04:32:00,20.0,12.0,-100.00,NNW,340,1.0,4.0,72,0.00,,,-99.99,,2013-02-04 09:32:00,
2013-02-04 04:42:00,19.0,12.0,-100.00,NNW,330,1.0,3.0,73,0.00,,,-99.99,,2013-02-04 09:42:00,
2013-02-04 04:52:00,20.0,12.0,-100.00,NNW,345,2.0,3.0,72,0.00,,,-99.99,,2013-02-04 09:52:00,
2013-02-04 05:02:00,20.0,12.0,-100.00,West,270,1.0,3.0,73,0.00,,,-99.99,,2013-02-04 10:02:00,
2013-02-04 05:12:00,20.0,12.0,-100.00,NW,325,4.0,6.0,70,0.00,,,-99.99,,2013-02-04 10:12:00,
2013-02-04 05:21:00,20.0,12.0,-100.00,NW,320,3.0,6.0,70,0.00,,,-99.99,,2013-02-04 10:21:00,
2013-02-04 05:32:00,20.0,12.0,-100.00,NW,315,3.0,6.0,69,0.00,,,-99.99,,2013-02-04 10:32:00,
2013-02-04 05:42:00,20.0,12.0,-100.00,NW,325,2.0,4.0,69,0.00,,,-99.99,,2013-02-04 10:42:00,
2013-02-04 05:51:00,20.0,12.0,-100.00,NW,315,3.0,4.0,69,0.00,,,-99.99,,2013-02-04 10:51:00,
2013-02-04 06:02:00,20.0,12.0,-100.00,NW,320,2.0,4.0,69,0.00,,,-99.99,,2013-02-04 11:02:00,
2013-02-04 06:11:00,19.0,11.0,-100.00,NW,315,3.0,4.0,69,0.00,,,-99.99,,2013-02-04 11:11:00,
2013-02-04 06:22:00,19.0,11.0,-100.00,WNW,295,2.0,4.0,70,0.00,,,-99.99,,2013-02-04 11:22:00,
2013-02-04 06:33:00,19.0,11.0,-100.00,NW,305,2.0,4.0,71,0.00,,,-99.99,,2013-02-04 11:33:00,
2013-02-04 06:42:00,19.0,11.0,-100.00,NW,315,3.0,6.0,71,0.00,,,-99.99,,2013-02-04 11:42:00,
2013-02-04 06:52:00,19.0,11.0,-100.00,NW,310,4.0,7.0,71,0.00,,,-99.99,,2013-02-04 11:52:00,
2013-02-04 07:03:00,19.0,11.0,-100.00,NW,315,4.0,6.0,70,0.00,,,-99.99,,2013-02-04 12:03:00,
2013-02-04 07:12:00,19.0,11.0,-100.00,NW,310,3.0,6.0,69,0.00,,,-99.99,,2013-02-04 12:12:00,
2013-02-04 07:22:00,19.0,11.0,-100.00,NW,310,2.0,6.0,69,0.00,,,-99.99,,2013-02-04 12:22:00,
2013-02-04 07:32:00,20.0,11.0,-100.00,WNW,285,2.0,6.0,69,0.00,,,-99.99,,2013-02-04 12:32:00,
2013-02-04 07:42:00,20.0,11.0,-100.00,NW,315,4.0,6.0,68,0.00,,,-99.99,,2013-02-04 12:42:00,
2013-02-04 07:52:00,20.0,11.0,-100.00,West,270,3.0,6.0,68,0.00,,,-99.99,,2013-02-04 12:52:00,
2013-02-04 08:03:00,20.0,11.0,-100.00,West,275,3.0,7.0,67,0.00,,,-99.99,,2013-02-04 13:03:00,
2013-02-04 08:12:00,21.0,12.0,-100.00,NW,315,4.0,9.0,67,0.00,,,-99.99,,2013-02-04 13:12:00,
2013-02-04 08:22:00,22.0,12.0,-100.00,NW,320,3.0,7.0,65,0.00,,,-99.99,,2013-02-04 13:22:00,
2013-02-04 08:33:00,22.0,12.0,-100.00,NW,320,4.0,7.0,64,0.00,,,-99.99,,2013-02-04 13:33:00,
2013-02-04 08:42:00,22.0,12.0,-100.00,NW,315,6.0,7.0,63,0.00,,,-99.99,,2013-02-04 13:42:00,
2013-02-04 08:52:00,23.0,11.0,-100.00,NNW,335,7.0,11.0,60,0.00,,,-99.99,,2013-02-04 13:52:00,
2013-02-04 09:03:00,24.0,11.0,-100.00,NW,320,7.0,12.0,57,0.00,,,-99.99,,2013-02-04 14:03:00,
2013-02-04 09:12:00,24.0,11.0,-100.00,NNW,335,8.0,13.0,56,0.00,,,-99.99,,2013-02-04 14:12:00,
2013-02-04 09:23:00,24.0,10.0,-100.00,NW,310,8.0,13.0,52,0.00,,,-99.99,,2013-02-04 14:23:00,
2013-02-04 09:33:00,24.0,9.0,-100.00,NNW,335,11.0,21.0,51,0.00,,,-99.99,,2013-02-04 14:33:00,
2013-02-04 09:42:00,25.0,8.0,-100.00,NNW,335,9.0,16.0,49,0.00,,,-99.99,,2013-02-04 14:42:00,
2013-02-04 09:52:00,25.0,8.0,-100.00,NW,325,10.0,21.0,47,0.00,,,-99.99,,2013-02-04 14:52:00,
2013-02-04 10:03:00,25.0,7.0,-100.00,NNW,335,12.0,21.0,45,0.00,,,-99.99,,2013-02-04 15:03:00,
2013-02-04 10:13:00,26.0,7.0,-100.00,NW,310,9.0,19.0,44,0.00,,,-99.99,,2013-02-04 15:13:00,
2013-02-04 10:24:00,26.0,6.0,-100.00,NNW,330,12.0,24.0,43,0.00,,,-99.99,,2013-02-04 15:24:00,
2013-02-04 10:33:00,26.0,7.0,-100.00,NW,325,9.0,23.0,42,0.00,,,-99.99,,2013-02-04 15:33:00,
2013-02-04 10:43:00,26.0,5.0,-100.00,NNW,345,9.0,21.0,40,0.00,,,-99.99,,2013-02-04 15:43:00,
2013-02-04 10:52:00,26.0,4.0,-100.00,NNW,335,16.0,24.0,37,0.00,,,-99.99,,2013-02-04 15:52:00,
2013-02-04 11:03:00,26.0,5.0,-100.00,NNW,335,9.0,22.0,39,0.00,,,-99.99,,2013-02-04 16:03:00,
2013-02-04 11:11:00,26.0,5.0,-100.00,NW,325,9.0,14.0,40,0.00,,,-99.99,,2013-02-04 16:11:00,
2013-02-04 11:23:00,26.0,4.0,-100.00,NNW,340,13.0,21.0,38,0.00,,,-99.99,,2013-02-04 16:23:00,
2013-02-04 11:33:00,26.0,4.0,-100.00,NNW,335,9.0,22.0,38,0.00,,,-99.99,,2013-02-04 16:33:00,
2013-02-04 11:43:00,27.0,3.0,-100.00,NW,315,15.0,22.0,35,0.00,,,-99.99,,2013-02-04 16:43:00,
2013-02-04 11:51:00,27.0,2.0,-100.00,NW,315,12.0,25.0,33,0.00,,,-99.99,,2013-02-04 16:51:00,
2013-02-04 12:02:00,26.0,2.0,-100.00,NNW,335,16.0,25.0,34,0.00,,,-99.99,,2013-02-04 17:02:00,
2013-02-04 12:11:00,27.0,3.0,-100.00,NW,320,9.0,21.0,34,0.00,,,-99.99,,2013-02-04 17:11:00,
2013-02-04 12:21:00,27.0,3.0,-100.00,NNW,330,9.0,17.0,34,0.00,,,-99.99,,2013-02-04 17:21:00,
2013-02-04 12:32:00,28.0,3.0,-100.00,NW,310,7.0,16.0,34,0.00,,,-99.99,,2013-02-04 17:32:00,
2013-02-04 12:42:00,27.0,3.0,-100.00,NNW,335,13.0,19.0,34,0.00,,,-99.99,,2013-02-04 17:42:00,
2013-02-04 12:51:00,28.0,3.0,-100.00,NW,325,6.0,19.0,33,0.00,,,-99.99,,2013-02-04 17:51:00,
2013-02-04 13:03:00,28.0,2.0,-100.00,NNW,340,12.0,20.0,32,0.00,,,-99.99,,2013-02-04 18:03:00,
2013-02-04 13:12:00,27.0,2.0,-100.00,NNW,335,13.0,21.0,32,0.00,,,-99.99,,2013-02-04 18:12:00,
2013-02-04 13:22:00,29.0,3.0,-100.00,NW,325,3.0,24.0,32,0.00,,,-99.99,,2013-02-04 18:22:00,
2013-02-04 13:32:00,29.0,2.0,-100.00,NW,320,9.0,20.0,30,0.00,,,-99.99,,2013-02-04 18:32:00,
2013-02-04 13:42:00,29.0,2.0,-100.00,NW,320,9.0,21.0,31,0.00,,,-99.99,,2013-02-04 18:42:00,
2013-02-04 13:52:00,28.0,2.0,-100.00,NNW,330,9.0,24.0,32,0.00,,,-99.99,,2013-02-04 18:52:00,
2013-02-04 14:02:00,27.0,1.0,-100.00,NNW,340,10.0,26.0,31,0.00,,,-99.99,,2013-02-04 19:02:00,
2013-02-04 14:11:00,28.0,1.0,-100.00,NW,320,14.0,22.0,31,0.00,,,-99.99,,2013-02-04 19:11:00,
2013-02-04 14:22:00,28.0,1.0,-100.00,NNW,330,12.0,24.0,30,0.00,,,-99.99,,2013-02-04 19:22:00,
2013-02-04 14:32:00,28.0,1.0,-100.00,NNW,330,13.0,30.0,31,0.00,,,-99.99,,2013-02-04 19:32:00,
2013-02-04 14:42:00,28.0,3.0,-100.00,West,280,6.0,17.0,33,0.00,,,-99.99,,2013-02-04 19:42:00,
2013-02-04 14:52:00,27.0,3.0,-100.00,WNW,285,6.0,17.0,34,0.00,,,-99.99,,2013-02-04 19:52:00,
2013-02-04 15:02:00,29.0,3.0,-100.00,NW,315,11.0,23.0,33,0.00,,,-99.99,,2013-02-04 20:02:00,
2013-02-04 15:12:00,28.0,3.0,-100.00,NNW,330,14.0,25.0,33,0.00,,,-99.99,,2013-02-04 20:12:00,
2013-02-04 15:22:00,27.0,4.0,-100.00,NW,315,11.0,19.0,36,0.00,,,-99.99,,2013-02-04 20:22:00,
2013-02-04 15:32:00,27.0,4.0,-100.00,NNW,330,14.0,21.0,36,0.00,,,-99.99,,2013-02-04 20:32:00,
2013-02-04 15:42:00,28.0,3.0,-100.00,NW,320,10.0,26.0,33,0.00,,,-99.99,,2013-02-04 20:42:00,
2013-02-04 15:52:00,28.0,2.0,-100.00,NW,325,10.0,25.0,32,0.00,,,-99.99,,2013-02-04 20:52:00,
2013-02-04 16:03:00,28.0,1.0,-100.00,NW,310,14.0,26.0,30,0.00,,,-99.99,,2013-02-04 21:03:00,
2013-02-04 16:12:00,28.0,0.0,-100.00,NW,320,9.0,21.0,29,0.00,,,-99.99,,2013-02-04 21:12:00,
2013-02-04 16:23:00,27.0,0.0,-100.00,NNW,330,16.0,27.0,30,0.00,,,-99.99,,2013-02-04 21:23:00,
2013-02-04 16:32:00,27.0,0.0,-100.00,NNW,330,12.0,24.0,31,0.00,,,-99.99,,2013-02-04 21:32:00,
2013-02-04 16:43:00,27.0,0.0,-100.00,NW,320,15.0,22.0,31,0.00,,,-99.99,,2013-02-04 21:43:00,
2013-02-04 16:52:00,26.0,0.0,-100.00,NNW,330,14.0,26.0,32,0.00,,,-99.99,,2013-02-04 21:52:00,
2013-02-04 17:03:00,26.0,1.0,-100.00,NW,320,14.0,25.0,32,0.00,,,-99.99,,2013-02-04 22:03:00,
2013-02-04 17:12:00,26.0,1.0,-100.00,NW,305,9.0,17.0,33,0.00,,,-99.99,,2013-02-04 22:12:00,
2013-02-04 17:21:00,26.0,1.0,-100.00,NW,320,7.0,19.0,34,0.00,,,-99.99,,2013-02-04 22:21:00,
2013-02-04 17:32:00,25.0,2.0,-100.00,NW,325,10.0,23.0,35,0.00,,,-99.99,,2013-02-04 22:32:00,
2013-02-04 17:42:00,25.0,2.0,-100.00,WNW,300,9.0,21.0,35,0.00,,,-99.99,,2013-02-04 22:42:00,
2013-02-04 17:52:00,25.0,2.0,-100.00,NW,325,7.0,23.0,37,0.00,,,-99.99,,2013-02-04 22:52:00,
2013-02-04 18:02:00,25.0,3.0,-100.00,NW,310,7.0,19.0,38,0.00,,,-99.99,,2013-02-04 23:02:00,
2013-02-04 18:11:00,24.0,3.0,-100.00,WNW,300,6.0,12.0,39,0.00,,,-99.99,,2013-02-04 23:11:00,
2013-02-04 18:22:00,24.0,4.0,-100.00,NW,305,6.0,14.0,40,0.00,,,-99.99,,2013-02-04 23:22:00,
2013-02-04 18:32:00,24.0,4.0,-100.00,NW,305,5.0,11.0,40,0.00,,,-99.99,,2013-02-04 23:32:00,
2013-02-04 18:42:00,24.0,4.0,-100.00,NW,305,3.0,9.0,42,0.00,,,-99.99,,2013-02-04 23:42:00,
2013-02-04 18:52:00,24.0,4.0,-100.00,NW,305,7.0,10.0,41,0.00,,,-99.99,,2013-02-04 23:52:00,
2013-02-04 19:02:00,24.0,4.0,-100.00,NW,310,4.0,14.0,41,0.00,,,-99.99,,2013-02-05 00:02:00,
2013-02-04 19:11:00,23.0,3.0,-100.00,NW,310,6.0,13.0,41,0.00,,,-99.99,,2013-02-05 00:11:00,
2013-02-04 19:22:00,23.0,3.0,-100.00,NW,325,7.0,17.0,41,0.00,,,-99.99,,2013-02-05 00:22:00,
2013-02-04 19:32:00,23.0,3.0,-100.00,WNW,300,5.0,12.0,41,0.00,,,-99.99,,2013-02-05 00:32:00,
2013-02-04 19:42:00,23.0,3.0,-100.00,NW,325,6.0,12.0,40,0.00,,,-99.99,,2013-02-05 00:42:00,
2013-02-04 19:52:00,23.0,3.0,-100.00,NW,315,6.0,16.0,41,0.00,,,-99.99,,2013-02-05 00:52:00,
2013-02-04 20:02:00,23.0,3.0,-100.00,NW,305,8.0,14.0,41,0.00,,,-99.99,,2013-02-05 01:02:00,
2013-02-04 20:12:00,23.0,3.0,-100.00,West,270,6.0,12.0,42,0.00,,,-99.99,,2013-02-05 01:12:00,
2013-02-04 20:22:00,22.0,3.0,-100.00,WNW,290,4.0,11.0,43,0.00,,,-99.99,,2013-02-05 01:22:00,
2013-02-04 20:32:00,22.0,3.0,-100.00,NW,305,4.0,11.0,43,0.00,,,-99.99,,2013-02-05 01:32:00,
2013-02-04 20:42:00,22.0,3.0,-100.00,WNW,285,4.0,11.0,42,0.00,,,-99.99,,2013-02-05 01:42:00,
2013-02-04 20:52:00,22.0,2.0,-100.00,West,265,6.0,12.0,41,0.00,,,-99.99,,2013-02-05 01:52:00,
2013-02-04 21:02:00,22.0,2.0,-100.00,WNW,300,4.0,9.0,41,0.00,,,-99.99,,2013-02-05 02:02:00,
2013-02-04 21:11:00,22.0,2.0,-100.00,West,265,4.0,9.0,40,0.00,,,-99.99,,2013-02-05 02:11:00,
2013-02-04 21:22:00,22.0,1.0,-100.00,WNW,295,6.0,11.0,40,0.00,,,-99.99,,2013-02-05 02:22:00,
2013-02-04 21:32:00,22.0,1.0,-100.00,NW,320,6.0,11.0,40,0.00,,,-99.99,,2013-02-05 02:32:00,
2013-02-04 21:42:00,22.0,1.0,-100.00,NW,315,6.0,9.0,40,0.00,,,-99.99,,2013-02-05 02:42:00,
2013-02-04 21:52:00,21.0,1.0,-100.00,NW,325,7.0,11.0,40,0.00,,,-99.99,,2013-02-05 02:52:00,
2013-02-04 22:02:00,21.0,1.0,-100.00,West,275,5.0,9.0,41,0.00,,,-99.99,,2013-02-05 03:02:00,
2013-02-04 22:11:00,21.0,1.0,-100.00,West,275,4.0,9.0,41,0.00,,,-99.99,,2013-02-05 03:11:00,
2013-02-04 22:22:00,21.0,1.0,-100.00,NW,315,4.0,7.0,42,0.00,,,-99.99,,2013-02-05 03:22:00,
2013-02-04 22:32:00,21.0,1.0,-100.00,NW,305,4.0,12.0,42,0.00,,,-99.99,,2013-02-05 03:32:00,
2013-02-04 22:42:00,21.0,1.0,-100.00,NNW,330,5.0,10.0,41,0.00,,,-99.99,,2013-02-05 03:42:00,
2013-02-04 22:52:00,20.0,1.0,-100.00,WNW,300,4.0,9.0,42,0.00,,,-99.99,,2013-02-05 03:52:00,
2013-02-04 23:01:00,20.0,1.0,-100.00,NW,315,6.0,10.0,42,0.00,,,-99.99,,2013-02-05 04:01:00,
2013-02-04 23:11:00,20.0,1.0,-100.00,WNW,300,4.0,9.0,43,0.00,,,-99.99,,2013-02-05 04:11:00,
2013-02-04 23:22:00,20.0,1.0,-100.00,West,280,4.0,7.0,43,0.00,,,-99.99,,2013-02-05 04:22:00,
2013-02-04 23:32:00,20.0,1.0,-100.00,NW,325,4.0,7.0,43,0.00,,,-99.99,,2013-02-05 04:32:00,
2013-02-04 23:42:00,20.0,1.0,-100.00,NNW,330,2.0,8.0,44,0.00,,,-99.99,,2013-02-05 04:42:00,
2013-02-04 23:52:00,19.0,1.0,-100.00,West,275,4.0,6.0,44,0.00,,,-99.99,,2013-02-05 04:52:00,